Cortez, CO

1:08 AM MDT on March 29, 2017 (GMT -0600)
Cortez Municipal

Weather History for KCEZ - January, 2015

Change the Weather History Date:

Tuesday, January 20, 2015

  Actual Average Record
Temperature  
Mean Temperature 36 °F 28 °F  
Max Temperature 49 °F 41 °F 56 °F (2014)
Min Temperature 23 °F 15 °F 0 °F (2008)
Degree Days  
Heating Degree Days 29 37  
Month to date heating degree days 710 749  
Since 1 July heating degree days 2989 3407  
Cooling Degree Days 0 0  
Month to date cooling degree days 0 0  
Year to date cooling degree days 0 0  
Moisture  
Dew Point 26 °F    
Average Humidity 69    
Maximum Humidity 96    
Minimum Humidity 42    
Precipitation  
Precipitation 0.00 in 0.03 in 0.21 in (1999)
Month to date precipitation 0.64 0.62  
Year to date precipitation 0.64 0.62  
Sea Level Pressure  
Sea Level Pressure 30.13 in    
Wind  
Wind Speed 7 mph (ENE)    
Max Wind Speed 16 mph    
Max Gust Speed 19 mph    
Visibility 10 miles    
Events      
T = Trace of Precipitation, MM = Missing Value Source: NWS Daily Summary

Daily Weather History Graph

Daily Weather History Graph

Search for Another Location

Airport or City:

Trip Planner

Search our weather history database for the weather conditions in past years. The results will help you decide how hot, cold, wet, or windy it might be!

Date:

Astronomy

Jan. 20, 2015 Rise Set
Actual Time 7:25 AM MST 5:25 PM MST
Civil Twilight 6:57 AM MST 5:53 PM MST
Nautical Twilight 6:25 AM MST 6:25 PM MST
Astronomical Twilight 5:54 AM MST 6:56 PM MST
Moon 7:12 AM MST (1/20) 6:04 PM MST (1/20)
Length of Visible Light 10h 56m
Length of Day
10h 00m
New Moon, 0% of the Moon is Illuminated
Jan 20
New Moon
Jan 26
First Quarter
Feb 3
Full
Feb 11
Last Quarter
Feb 18
New

Hourly Weather History & Observations

Time (MST) Temp. Windchill Dew Point Humidity Pressure Visibility Wind Dir Wind Speed Gust Speed Precip Events Conditions
12:53 AM 27.0 °F 19.5 °F 25.0 °F 92% 30.14 in 10.0 mi East 6.9 mph - N/A   Clear
1:53 AM 26.1 °F 17.6 °F 23.0 °F 88% 30.15 in 10.0 mi NE 8.1 mph - N/A   Clear
2:53 AM 26.1 °F 17.6 °F 24.1 °F 92% 30.16 in 10.0 mi ENE 8.1 mph - N/A   Clear
3:53 AM 25.0 °F 17.1 °F 23.0 °F 92% 30.15 in 10.0 mi ENE 6.9 mph - N/A   Clear
4:53 AM 25.0 °F 18.1 °F 23.0 °F 92% 30.16 in 10.0 mi ENE 5.8 mph - N/A   Clear
5:53 AM 23.0 °F 17.0 °F 21.0 °F 92% 30.17 in 10.0 mi ENE 4.6 mph - N/A   Clear
6:53 AM 23.0 °F 18.4 °F 19.9 °F 88% 30.19 in 10.0 mi East 3.5 mph - N/A   Clear
7:53 AM 23.0 °F 18.4 °F 21.0 °F 92% 30.20 in 10.0 mi ENE 3.5 mph - N/A   Clear
8:53 AM 30.0 °F 25.2 °F 26.1 °F 85% 30.20 in 10.0 mi East 4.6 mph - N/A   Clear
9:53 AM 37.0 °F 34.5 °F 26.1 °F 65% 30.20 in 10.0 mi East 3.5 mph - N/A   Clear
10:53 AM 41.0 °F - 24.1 °F 51% 30.18 in 10.0 mi Calm Calm - N/A   Clear
11:53 AM 46.0 °F 44.8 °F 25.0 °F 44% 30.13 in 10.0 mi SW 3.5 mph - N/A   Clear
12:53 PM 48.9 °F - 28.0 °F 44% 30.08 in 10.0 mi South 10.4 mph - N/A   Clear
1:53 PM 46.9 °F - 33.1 °F 59% 30.07 in 10.0 mi SSW 15.0 mph - N/A   Clear
2:53 PM 48.0 °F - 30.9 °F 52% 30.07 in 10.0 mi SSW 12.7 mph - N/A   Clear
3:53 PM 45.0 °F 39.7 °F 28.9 °F 53% 30.09 in 10.0 mi WNW 10.4 mph - N/A   Clear
4:53 PM 43.0 °F 37.2 °F 28.0 °F 56% 30.09 in 10.0 mi WNW 10.4 mph - N/A   Clear
5:53 PM 39.0 °F - 28.0 °F 65% 30.12 in 10.0 mi Calm Calm - N/A   Clear
6:53 PM 34.0 °F 28.8 °F 28.0 °F 79% 30.13 in 10.0 mi East 5.8 mph - N/A   Clear
7:53 PM 32.0 °F 24.8 °F 27.0 °F 82% 30.13 in 10.0 mi NE 8.1 mph - N/A   Clear
8:53 PM 32.0 °F 25.6 °F 27.0 °F 82% 30.10 in 10.0 mi ENE 6.9 mph - N/A   Clear
9:53 PM 30.9 °F 25.2 °F 27.0 °F 85% 30.08 in 10.0 mi ENE 5.8 mph - N/A   Clear
10:53 PM 30.9 °F 25.2 °F 27.0 °F 85% 30.07 in 10.0 mi ENE 5.8 mph - N/A   Clear
11:53 PM 28.9 °F 22.8 °F 26.1 °F 89% 30.05 in 10.0 mi NE 5.8 mph - N/A   Partly Cloudy